Date String (YYYY-MM-DD hh:mm:ss) UTC,Instrument flags,Ambient pressure (hPa),Sample flow (lpm),Bypass flow (lpm),Sample temperature (°C),Ambient temperature (°C),ASC tube jacket temperature (°C),LED temperature (°C),Box temperature (°C),Sample RH (%),Span deviation,Mass concentration (μg/m³),Mass concentration (μg/m³),Mass concentration (μg/m³)
DateTimeUTC,F1_M11,P_M11,Q1_M11,Q2_M11,T1_M11,T2_M11,T3_M11,T4_M11,T5_M11,U1_M11,ZSPAN_M11,X0_M11,X2_M11,X1_M11
2021-11-28 22:00:00,,0829.1,5.00,0.00,30.1,29.5,00.0,39.0,31.9,10.5,0000.0,0008.70,0001.91,0000.74
2021-11-28 22:01:00,,0829.1,5.00,0.00,30.1,29.5,00.0,39.0,31.9,10.5,0000.0,0009.08,0001.99,0000.76
2021-11-28 22:02:00,,0829.2,5.00,0.00,30.2,29.5,00.0,39.0,31.9,10.5,0000.0,0008.93,0002.04,0000.77
2021-11-28 22:03:00,,0829.2,5.00,0.00,30.2,29.6,00.0,39.0,32.0,10.4,0000.0,0008.49,0002.05,0000.79
2021-11-28 22:04:00,,0829.2,5.00,0.00,30.2,29.6,00.0,39.0,32.0,10.5,0000.0,0008.51,0002.07,0000.81
2021-11-28 22:05:00,,0829.3,5.01,0.00,30.2,29.6,00.0,39.1,32.0,10.4,0000.0,0008.65,0002.13,0000.82
2021-11-28 22:06:00,,0829.2,4.99,0.00,30.2,29.6,00.0,39.1,32.0,10.4,0000.0,0008.59,0002.14,0000.82
2021-11-28 22:07:00,,0829.2,4.99,0.00,30.3,29.6,00.0,39.1,32.1,10.4,0000.0,0008.52,0002.18,0000.83
2021-11-28 22:08:00,,0829.2,5.00,0.00,30.3,29.6,00.0,39.1,32.1,10.4,0000.0,0008.33,0002.19,0000.82
2021-11-28 22:09:00,,0829.2,5.00,0.00,30.3,29.6,00.0,39.1,32.1,10.4,0000.0,0007.81,0002.07,0000.80
2021-11-28 22:10:00,,0829.3,5.00,0.00,30.3,29.6,00.0,39.1,32.0,10.4,0000.0,0007.02,0001.98,0000.80
2021-11-28 22:11:00,,0829.2,4.99,0.00,30.3,29.6,00.0,39.2,32.0,10.3,0000.0,0005.58,0001.85,0000.79
2021-11-28 22:12:00,,0829.3,4.99,0.00,30.3,29.6,00.0,39.2,32.0,10.3,0000.0,0005.16,0001.78,0000.77
2021-11-28 22:13:00,,0829.2,4.99,0.00,30.3,29.5,00.0,39.2,32.0,10.2,0000.0,0005.61,0001.74,0000.75
2021-11-28 22:14:00,,0829.3,5.01,0.00,30.3,29.5,00.0,39.2,32.0,10.2,0000.0,0005.53,0001.63,0000.72
2021-11-28 22:15:00,,0829.3,5.00,0.00,30.3,29.5,00.0,39.2,32.0,10.2,0000.0,0005.85,0001.59,0000.69
2021-11-28 22:16:00,,0829.2,4.99,0.00,30.3,29.5,00.0,39.2,32.0,10.2,0000.0,0005.50,0001.49,0000.67
2021-11-28 22:17:00,,0829.3,5.00,0.00,30.3,29.5,00.0,39.2,32.0,10.2,0000.0,0005.49,0001.50,0000.66
2021-11-28 22:18:00,,0829.2,5.01,0.00,30.2,29.5,00.0,39.2,32.0,10.2,0000.0,0005.61,0001.43,0000.65
2021-11-28 22:19:00,,0829.2,5.00,0.00,30.2,29.4,00.0,39.2,32.0,10.3,0000.0,0005.22,0001.32,0000.64
2021-11-28 22:20:00,,0829.3,4.99,0.00,30.2,29.4,00.0,39.2,32.0,10.3,0000.0,0005.10,0001.28,0000.62
2021-11-28 22:21:00,,0829.3,4.99,0.00,30.2,29.4,00.0,39.2,31.9,10.3,0000.0,0004.83,0001.19,0000.60
2021-11-28 22:22:00,,0829.3,5.01,0.00,30.2,29.4,00.0,39.2,32.0,10.3,0000.0,0004.76,0001.18,0000.59
2021-11-28 22:23:00,,0829.2,5.00,0.00,30.2,29.4,00.0,39.2,32.0,10.3,0000.0,0004.96,0001.16,0000.59
2021-11-28 22:24:00,,0829.3,5.01,0.00,30.2,29.4,00.0,39.2,32.0,10.2,0000.0,0005.85,0001.16,0000.59
2021-11-28 22:25:00,,0829.2,4.99,0.00,30.2,29.4,00.0,39.2,32.0,10.2,0000.0,0006.32,0001.19,0000.60
2021-11-28 22:26:00,,0829.5,5.01,0.00,30.2,29.5,00.0,39.2,32.0,10.2,0000.0,0006.65,0001.19,0000.60
2021-11-28 22:27:00,,0829.3,5.00,0.00,30.2,29.5,00.0,39.2,32.0,10.2,0000.0,0006.75,0001.21,0000.60
2021-11-28 22:28:00,,0829.4,5.00,0.00,30.2,29.4,00.0,39.2,32.0,10.2,0000.0,0006.65,0001.17,0000.60
2021-11-28 22:29:00,,0829.2,4.99,0.00,30.2,29.4,00.0,39.2,31.9,10.1,0000.0,0006.21,0001.13,0000.59
2021-11-28 22:30:00,,0829.2,5.01,0.00,30.2,29.4,00.0,39.2,31.9,10.1,0000.0,0006.05,0001.09,0000.58
2021-11-28 22:31:00,,0829.2,4.99,0.00,30.2,29.4,00.0,39.2,31.9,10.1,0000.0,0006.00,0001.08,0000.56
2021-11-28 22:32:00,,0829.2,5.01,0.00,30.2,29.4,00.0,39.2,31.9,10.1,0000.0,0005.96,0001.05,0000.54
2021-11-28 22:33:00,,0829.2,4.99,0.00,30.2,29.4,00.0,39.2,31.9,10.1,0000.0,0005.83,0001.00,0000.53
2021-11-28 22:34:00,,0829.2,5.00,0.00,30.2,29.5,00.0,39.2,31.9,10.1,0000.0,0005.47,0000.95,0000.51
2021-11-28 22:35:00,,0829.3,4.99,0.00,30.2,29.5,00.0,39.2,31.9,10.1,0000.0,0003.49,0000.92,0000.51
2021-11-28 22:36:00,,0829.3,5.01,0.00,30.2,29.5,00.0,39.2,31.9,10.1,0000.0,0003.13,0000.89,0000.49
2021-11-28 22:37:00,,0829.2,4.99,0.00,30.2,29.5,00.0,39.2,31.9,10.1,0000.0,0002.46,0000.92,0000.50
2021-11-28 22:38:00,,0829.3,5.00,0.00,30.2,29.5,00.0,39.2,31.9,10.1,0000.0,0002.47,0000.91,0000.49
2021-11-28 22:39:00,,0829.2,5.00,0.00,30.2,29.5,00.0,39.2,31.9,10.1,0000.0,0002.32,0000.86,0000.48
2021-11-28 22:40:00,,0829.2,5.00,0.00,30.2,29.5,00.0,39.2,31.9,10.1,0000.0,0002.19,0000.83,0000.46
2021-11-28 22:41:00,,0829.2,5.00,0.00,30.2,29.5,00.0,39.2,32.0,10.0,0000.0,0002.25,0000.85,0000.46
2021-11-28 22:42:00,,0829.2,5.01,0.00,30.2,29.5,00.0,39.2,31.9,10.0,0000.0,0002.19,0000.84,0000.47
2021-11-28 22:43:00,,0829.2,4.99,0.00,30.2,29.5,00.0,39.2,31.9,10.0,0000.0,0002.11,0000.82,0000.48
2021-11-28 22:44:00,,0829.3,5.00,0.00,30.2,29.5,00.0,39.2,31.9,10.0,0000.0,0001.95,0000.78,0000.47
2021-11-28 22:45:00,,0829.3,5.01,0.00,30.2,29.5,00.0,39.2,31.9,10.0,0000.0,0001.93,0000.76,0000.46
2021-11-28 22:46:00,,0829.2,4.99,0.00,30.2,29.5,00.0,39.2,32.0,10.0,0000.0,0001.78,0000.73,0000.45
2021-11-28 22:47:00,,0829.3,5.00,0.00,30.2,29.5,00.0,39.2,31.9,10.0,0000.0,0001.66,0000.71,0000.45
2021-11-28 22:48:00,,0829.3,5.02,0.00,30.2,29.5,00.0,39.2,31.9,10.0,0000.0,0001.45,0000.68,0000.44
2021-11-28 22:49:00,,0829.3,5.00,0.00,30.2,29.5,00.0,39.2,31.9,10.0,0000.0,0001.34,0000.67,0000.43
2021-11-28 22:50:00,,0829.2,4.98,0.00,30.2,29.5,00.0,39.2,31.9,10.0,0000.0,0001.29,0000.68,0000.43
2021-11-28 22:51:00,,0829.3,5.01,0.00,30.2,29.5,00.0,39.2,31.9,10.0,0000.0,0001.35,0000.71,0000.43
2021-11-28 22:52:00,,0829.3,5.00,0.00,30.2,29.5,00.0,39.2,31.9,10.0,0000.0,0001.27,0000.68,0000.42
2021-11-28 22:53:00,,0829.4,4.99,0.00,30.2,29.5,00.0,39.2,31.9,10.0,0000.0,0001.24,0000.66,0000.40
2021-11-28 22:54:00,,0829.4,4.99,0.00,30.2,29.5,00.0,39.2,31.9,10.0,0000.0,0002.42,0000.68,0000.39
2021-11-28 22:55:00,,0829.4,4.99,0.00,30.2,29.4,00.0,39.2,31.8,10.0,0000.0,0002.56,0000.70,0000.39
2021-11-28 22:56:00,,0829.4,5.01,0.00,30.2,29.5,00.0,39.2,31.9,09.9,0000.0,0002.50,0000.68,0000.39
2021-11-28 22:57:00,,0829.4,4.99,0.00,30.2,29.4,00.0,39.2,31.9,09.9,0000.0,0002.46,0000.68,0000.39
2021-11-28 22:58:00,,0829.5,5.01,0.00,30.2,29.4,00.0,39.2,31.9,10.0,0000.0,0003.55,0000.68,0000.38
2021-11-28 22:59:00,,0829.5,5.00,0.00,30.2,29.5,00.0,39.2,31.9,09.9,0000.0,0003.62,0000.65,0000.38
